ONEWEB-0119 (47265 NORAD) Tracking and Keplerian Element Data

This shows tracking and keplerian element data for the satellite.

Feedback or suggestion? Click here.




ElementValue
Catalog47265
NameONEWEB-0119
Epoch Orbit175
Epoch Day106.00001157
Epoch Year2021
RAAN6.1345
Inclination87.9406
Eccentricity0.0001711
Argument of Perigee123.0772
Mean Anonmoly164.1959
Mean Motion13.23468662
Decay Rate0.00010544
L11 47265U 20100H 21106.00001157 .00010544 00000-0 24855-1 0 9990
L22 47265 87.9406 6.1345 0001711 123.0772 164.1959 13.23468662 1750

Live tracking and technical data element details for ONEWEB-0119 (NORAD 47265). ONEWEB-0119 can be tracked NOW for your location showing map with azimuth and elevation plus other details from your city location.

Track the satellite on the map from your city or location and see movement details for azimuth, elevation, latitude, longitude, range, height, and movement on the map or in text.







IsCatalogInMostPopularTable: catalog: 47265, numindb: 36
Update: records affected: 1



GetName: 47265 ONEWEB-0119

Hit Count: updated at: Fri, 16 Apr 2021 10:22:22 GMT